Tillbaka till svenska Fidonet
English   Information   Debug  
FILM   0/18
FNEWS_PUBLISH   4569
FN_SYSOP   41808
FN_SYSOP_OLD1   71952
FTP_FIDO   0/2
FTSC_PUBLIC   0/13887
FUNNY   2800/4886
GENEALOGY.EUR   0/71
GET_INFO   105
GOLDED   0/408
HAM   10734/16128
HOLYSMOKE   0/6791
HOT_SITES   0/1
HTMLEDIT   0/71
HUB203   466
HUB_100   264
HUB_400   39
HUMOR   0/29
IC   0/2851
INTERNET   0/424
INTERUSER   0/3
IP_CONNECT   719
JAMNNTPD   0/233
JAMTLAND   0/47
KATTY_KORNER   0/41
LAN   0/16
LINUX-USER   0/19
LINUXHELP   0/1155
LINUX   0/22169
LINUX_BBS   0/957
mail   18.68
mail_fore_ok   249
MENSA   0/341
MODERATOR   0/102
MONTE   0/992
MOSCOW_OKLAHOMA   0/1245
MUFFIN   0/783
MUSIC   0/321
N203_STAT   938
N203_SYSCHAT   313
NET203   321
NET204   69
NET_DEV   0/10
NORD.ADMIN   0/101
NORD.CHAT   0/2572
NORD.FIDONET   189
NORD.HARDWARE   0/28
NORD.KULTUR   0/114
NORD.PROG   0/32
NORD.SOFTWARE   0/88
NORD.TEKNIK   0/58
NORD   0/453
OCCULT_CHAT   0/93
OS2BBS   0/787
OS2DOSBBS   0/580
OS2HW   0/42
OS2INET   0/37
OS2LAN   0/134
OS2PROG   0/36
OS2REXX   0/113
OS2USER-L   207
OS2   0/4804
OSDEBATE   0/18996
PASCAL   0/490
PERL   0/457
PHP   0/45
POINTS   0/405
POLITICS   0/29554
POL_INC   0/14731
PSION   103
R20_ADMIN   1129
R20_AMATORRADIO   0/2
R20_BEST_OF_FIDONET   14
R20_CHAT   0/893
R20_DEPP   0/3
R20_DEV   399
R20_ECHO2   1492
R20_ECHOPRES   0/35
R20_ESTAT   0/719
R20_FIDONETPROG...
...RAM.MYPOINT
  0/2
R20_FIDONETPROGRAM   0/22
R20_FIDONET   0/248
R20_FILEFIND   0/24
R20_FILEFOUND   0/22
R20_HIFI   0/3
R20_INFO2   3382
R20_INTERNET   0/12940
R20_INTRESSE   0/60
R20_INTR_KOM   0/99
R20_KANDIDAT.CHAT   42
R20_KANDIDAT   28
R20_KOM_DEV   112
R20_KONTROLL   0/13360
R20_KORSET   0/18
R20_LOKALTRAFIK   0/24
R20_MODERATOR   0/1852
R20_NC   76
R20_NET200   245
R20_NETWORK.OTH...
...ERNETS
  0/13
R20_OPERATIVSYS...
...TEM.LINUX
  0/44
R20_PROGRAMVAROR   0/1
R20_REC2NEC   534
R20_SFOSM   0/341
R20_SF   0/108
R20_SPRAK.ENGLISH   0/1
R20_SQUISH   107
R20_TEST   2
R20_WORST_OF_FIDONET   20
RAR   0/9
RA_MULTI   106
RA_UTIL   0/162
REGCON.EUR   0/2066
REGCON   0/13
SCIENCE   0/1206
SF   0/239
SHAREWARE_SUPPORT   5074/5146
SHAREWRE   0/14
SIMPSONS   0/169
STATS_OLD1   0/2539.065
STATS_OLD2   0/2530
STATS_OLD3   0/2395.095
STATS_OLD4   0/1692.25
SURVIVOR   0/495
SYSOPS_CORNER   0/3
SYSOP   0/84
TAGLINES   0/112
TEAMOS2   0/4530
TECH   0/2617
TEST.444   0/105
TRAPDOOR   0/19
TREK   0/755
TUB   0/290
UFO   0/40
UNIX   0/1316
USA_EURLINK   0/102
USR_MODEMS   0/1
VATICAN   0/2740
VIETNAM_VETS   0/14
VIRUS   0/378
VIRUS_INFO   0/201
VISUAL_BASIC   0/473
WHITEHOUSE   0/5187
WIN2000   0/101
WIN32   0/30
WIN95   3483/4291
WIN95_OLD1   0/70272
WINDOWS   0/1517
WWB_SYSOP   0/419
WWB_TECH   0/810
ZCC-PUBLIC   0/1
ZEC   4

 
4DOS   0/134
ABORTION   0/7
ALASKA_CHAT   0/506
ALLFIX_FILE   0/1313
ALLFIX_FILE_OLD1   0/7997
ALT_DOS   0/152
AMATEUR_RADIO   0/1039
AMIGASALE   0/14
AMIGA   0/331
AMIGA_INT   0/1
AMIGA_PROG   0/20
AMIGA_SYSOP   0/26
ANIME   0/15
ARGUS   0/924
ASCII_ART   0/340
ASIAN_LINK   0/651
ASTRONOMY   0/417
AUDIO   0/92
AUTOMOBILE_RACING   0/105
BABYLON5   0/17862
BAG   135
BATPOWER   0/361
BBBS.ENGLISH   0/382
BBSLAW   0/109
BBS_ADS   0/5290
BBS_INTERNET   0/507
BIBLE   0/3563
BINKD   0/1119
BINKLEY   0/215
BLUEWAVE   0/2173
CABLE_MODEMS   0/25
CBM   0/46
CDRECORD   0/66
CDROM   0/20
CLASSIC_COMPUTER   0/378
COMICS   0/15
CONSPRCY   0/899
COOKING   36219
COOKING_OLD1   0/24719
COOKING_OLD2   0/40862
COOKING_OLD3   0/37489
COOKING_OLD4   0/35496
COOKING_OLD5   9370
C_ECHO   0/189
C_PLUSPLUS   0/31
DIRTY_DOZEN   0/201
DOORGAMES   0/2115
DOS_INTERNET   0/196
duplikat   6002
ECHOLIST   0/18295
EC_SUPPORT   0/318
ELECTRONICS   0/359
ELEKTRONIK.GER   1534
ENET.LINGUISTIC   0/13
ENET.POLITICS   0/4
ENET.SOFT   0/11701
ENET.SYSOP   34076
ENET.TALKS   0/32
ENGLISH_TUTOR   0/2000
EVOLUTION   0/1335
FDECHO   0/217
FDN_ANNOUNCE   0/7068
FIDONEWS   24344
FIDONEWS_OLD1   0/49742
FIDONEWS_OLD2   0/35949
FIDONEWS_OLD3   0/30874
FIDONEWS_OLD4   0/37224
FIDO_SYSOP   12854
FIDO_UTIL   0/180
FILEFIND   0/209
FILEGATE   0/212
Möte HAM, 16128 texter
 lista första sista föregående nästa
Text 2399, 815 rader
Skriven 2008-07-17 23:30:16 av Amsat List (1:323/120.0)
Ärende: [keps]  orb08199.amsa
=============================
[keps]  orb08199.amsa

Return-Path: <keps-bounces@amsat.org>
X-Rcpt: craig.healy@chowda.com
X-UIDL: 1216350213.46472

SB KEPS @ AMSAT  $ORB08199.O
Orbital Elements  08199.OSCAR

HR AMSAT ORBITAL ELEMENTS FOR OSCAR SATELLITES
FROM WA5QGD FORT WORTH,TX July 17, 2008
Send Subscribe/unsubscribe to KEPS at 
http://www.amsat.org/mailman/listinfo/keps
BID: ORB08199.O
TO ALL RADIO AMATEURS BT

Satellite: AO-07
Catalog number: 07530
Epoch time:      08198.66236850
Element set:    0230
Inclination:      101.4635 deg
RA of node:       229.1716 deg
Eccentricity:    0.0011757
Arg of perigee:   203.6117 deg
Mean anomaly:     156.4412 deg
Mean motion:   12.53573684 rev/day
Decay rate:       -2.7e-07 rev/day^2
Epoch rev:           54067
Checksum:              288

Satellite: AO-10
Catalog number: 14129
Epoch time:      08198.35823128
Element set:    0531
Inclination:      025.9975 deg
RA of node:       205.2854 deg
Eccentricity:    0.5976638
Arg of perigee:   140.6430 deg
Mean anomaly:     283.4189 deg
Mean motion:   02.05868145 rev/day
Decay rate:       -2.3e-07 rev/day^2
Epoch rev:           18870
Checksum:              325

Satellite: UO-11
Catalog number: 14781
Epoch time:      08198.53460991
Element set:    0722
Inclination:      098.1528 deg
RA of node:       233.0043 deg
Eccentricity:    0.0008789
Arg of perigee:   345.9073 deg
Mean anomaly:     014.1913 deg
Mean motion:   14.79654146 rev/day
Decay rate:       2.35e-06 rev/day^2
Epoch rev:           30819
Checksum:              315

Satellite: RS-15
Catalog number: 23439
Epoch time:      08198.90288595
Element set:    0173
Inclination:      064.8161 deg
RA of node:       086.9977 deg
Eccentricity:    0.0147183
Arg of perigee:   117.1632 deg
Mean anomaly:     244.4383 deg
Mean motion:   11.27552349 rev/day
Decay rate:       -3.9e-07 rev/day^2
Epoch rev:           55831
Checksum:              340

Satellite: FO-29
Catalog number: 24278
Epoch time:      08199.81276199
Element set:     815
Inclination:      098.5848 deg
RA of node:       112.0967 deg
Eccentricity:    0.0351208
Arg of perigee:   136.2159 deg
Mean anomaly:     226.7407 deg
Mean motion:   13.52938445 rev/day
Decay rate:       -5.7e-07 rev/day^2
Epoch rev:           58853
Checksum:              357

Satellite: SO-33
Catalog number: 25509
Epoch time:      08198.96621531
Element set:    0245
Inclination:      031.4318 deg
RA of node:       147.9729 deg
Eccentricity:    0.0355428
Arg of perigee:   287.4942 deg
Mean anomaly:     068.7141 deg
Mean motion:   14.28217360 rev/day
Decay rate:        4.7e-07 rev/day^2
Epoch rev:           50787
Checksum:              329

Satellite: AO-40
Catalog number: 26609
Epoch time:      08198.26660400
Element set:      91
Inclination:      007.6181 deg
RA of node:       072.0233 deg
Eccentricity:    0.7920827
Arg of perigee:   101.9699 deg
Mean anomaly:     346.3116 deg
Mean motion:   01.25584494 rev/day
Decay rate:      -1.96e-06 rev/day^2
Epoch rev:            3540
Checksum:              302

Satellite: VO-52
Catalog number: 28650
Epoch time:      08198.24651824
Element set:    0983
Inclination:      097.7881 deg
RA of node:       264.0581 deg
Eccentricity:    0.0028159
Arg of perigee:   047.6968 deg
Mean anomaly:     312.6599 deg
Mean motion:   14.81482457 rev/day
Decay rate:        9.3e-07 rev/day^2
Epoch rev:           17290
Checksum:              358

Satellite: PO-63
Catalog number: 29712
Epoch time:      08199.17073255
Element set:     624
Inclination:      097.8737 deg
RA of node:       256.7931 deg
Eccentricity:    0.0012996
Arg of perigee:   286.6583 deg
Mean anomaly:     073.3207 deg
Mean motion:   14.80212581 rev/day
Decay rate:       4.27e-06 rev/day^2
Epoch rev:            8190
Checksum:              333

/EX
SB KEPS @ AMSAT  $ORB08199.D
Orbital Elements  08199.MICROS

HR AMSAT ORBITAL ELEMENTS FOR THE MICROSATS
FROM WA5QGD FORT WORTH,TX July 17, 2008
Send Subscribe/unsubscribe to KEPS at 
http://www.amsat.org/mailman/listinfo/keps
BID: ORB08199.D
TO ALL RADIO AMATEURS BT

Satellite: AO-16
Catalog number: 20439
Epoch time:      08198.49144889
Element set:    0370
Inclination:      098.2307 deg
RA of node:       177.0575 deg
Eccentricity:    0.0011929
Arg of perigee:   088.5180 deg
Mean anomaly:     271.7372 deg
Mean motion:   14.31798154 rev/day
Decay rate:       -2.0e-08 rev/day^2
Epoch rev:           96511
Checksum:              330

Satellite: LO-19
Catalog number: 20442
Epoch time:      08198.53390113
Element set:    0296
Inclination:      098.2006 deg
RA of node:       185.5458 deg
Eccentricity:    0.0012963
Arg of perigee:   086.5683 deg
Mean anomaly:     273.6989 deg
Mean motion:   14.32036525 rev/day
Decay rate:        1.0e-07 rev/day^2
Epoch rev:           96527
Checksum:              324

Satellite: AO-27
Catalog number: 22825
Epoch time:      08198.46377567
Element set:    0018
Inclination:      098.3852 deg
RA of node:       157.3901 deg
Eccentricity:    0.0008446
Arg of perigee:   168.2996 deg
Mean anomaly:     191.8393 deg
Mean motion:   14.29243432 rev/day
Decay rate:        8.6e-07 rev/day^2
Epoch rev:           77195
Checksum:              354

Satellite: IO-26
Catalog number: 22826
Epoch time:      08199.42266789
Element set:     724
Inclination:      098.3779 deg
RA of node:       159.2084 deg
Eccentricity:    0.0009019
Arg of perigee:   162.6179 deg
Mean anomaly:     197.5323 deg
Mean motion:   14.29492024 rev/day
Decay rate:       -1.0e-07 rev/day^2
Epoch rev:           77218
Checksum:              340

